Wetbulb
47.29 47.12 47.19 46.40 46.59 46.64 46.78 47.30 47.91 47.65 47.25 47.24 47.65 48.13 48.50 47.89 48.29 46.26 44.38 49.88 47.35 42.66 43.79 46.35 47.81 46.23 47.52 50.57 46.56 49.50 50.21 49.89 51.48 45.10 44.16 44.24 43.97 46.20 47.86 50.43 47.30 45.88 43.67 43.10 45.12 42.87 41.04 61.56 58.68 53.21 58.29 60.61 62.32 62.80
47.21 47.74 47.47 46.33 46.72 46.61 46.85 46.47 46.48 46.61 47.12 47.40 47.41 47.21 47.39 47.35 47.61 47.11 43.41 48.07 49.09 43.95 43.50 48.18 48.37 49.57 49.23 49.98 47.37 51.28 48.47 48.67 51.73 49.51 48.81 48.19 45.82 49.23 48.51 46.09 54.31 48.01 51.39 48.57 49.08 49.35 57.02 57.09 58.95 62.25 62.91 61.42 61.49 61.18
47.07 46.29 45.99 46.08 46.07 46.09 46.32 46.82 46.77 46.43 46.76 46.85 47.04 47.12 47.03 47.22 47.10 46.16 43.23 45.44 46.14 43.59 44.67 45.50 46.23 51.38 52.66 51.97 52.51 47.68 51.39 52.89 52.56 53.86 49.76 49.56 48.31 48.47 45.64 47.21 49.76 51.70 55.52 51.61 50.59 54.45 53.97 56.87 57.66 59.62 60.73 62.34 62.29 62.30
46.60 46.37 45.78 46.53 45.93 45.91 46.64 46.78 46.56 46.45 46.54 46.66 47.05 47.18 47.31 47.34 46.94 46.23 43.02 46.36 45.76 43.52 40.06 46.48 54.21 53.42 55.07 53.34 52.74 53.79 52.65 52.23 52.81 53.10 49.90 47.48 46.79 50.38 47.61 49.71 47.39 51.80 54.19 51.54 51.45 55.16 54.15 56.72 58.68 60.46 61.65 62.33 61.97 61.91
46.54 45.79 45.93 45.70 45.81 46.14 46.62 46.39 46.79 47.04 47.23 47.24 47.42 47.42 47.42 47.19 47.42 46.20 46.28 47.87 49.47 43.08 38.50 41.04 47.08 51.10 52.49 54.42 53.62 54.65 52.36 51.68 49.96 48.81 46.55 46.88 50.56 49.74 49.54 48.66 46.99 51.64 50.69 49.73 47.95 56.02 52.93 56.39 59.23 60.18 59.91 59.09 60.74 59.82
46.76 45.59 45.81 45.48 46.05 46.34 46.60 46.76 47.06 47.34 47.42 47.40 47.40 47.31 47.59 47.52 47.38 45.10 44.87 50.30 51.21 47.99 41.83 37.97 48.68 50.60 54.64 53.70 52.31 52.26 51.81 51.70 51.02 48.31 47.94 49.85 54.41 49.62 44.85 43.80 52.36 54.53 56.03 56.36 53.51 55.49 58.93 58.69 59.74 60.73 58.71 59.45 60.41 59.38
46.24 45.81 45.55 45.33 45.83 46.39 46.01 46.32 46.52 46.71 47.08 47.26 47.79 48.16 48.36 48.26 45.94 44.43 43.81 48.21 48.85 49.83 42.37 39.11 43.93 52.12 54.10 53.56 51.39 50.48 51.61 50.18 50.16 48.69 47.81 48.56 48.73 50.41 46.36 42.12 50.59 51.71 54.86 56.26 56.71 54.87 55.47 56.83 54.05 59.65 59.68 60.06 59.44 59.50
45.87 45.54 45.44 45.14 45.62 46.26 46.10 46.37 46.54 47.20 47.02 47.22 47.94 47.92 49.02 48.94 46.78 44.80 50.08 50.16 48.72 46.52 45.05 38.69 43.18 47.49 52.85 48.95 48.35 52.05 48.48 49.98 49.78 48.35 48.82 47.13 48.51 49.28 43.40 48.34 50.13 53.76 54.32 54.72 55.12 57.17 56.61 56.36 59.04 59.83 59.11 59.45 57.87 56.56
45.63 45.35 45.42 45.06 45.44 45.83 45.95 46.18 46.28 47.09 47.27 47.44 47.44 48.47 48.40 47.46 47.01 49.61 51.69 50.70 51.71 47.42 41.11 42.34 40.60 41.43 51.63 49.42 51.25 50.98 51.79 45.55 50.17 46.15 46.30 47.64 45.56 43.70 47.15 48.43 50.72 52.01 51.14 53.16 55.14 57.06 57.31 55.33 56.88 57.69 57.58 57.02 55.91 55.65
45.69 45.22 45.35 45.44 45.37 45.75 45.82 45.94 46.41 46.85 46.80 47.51 45.94 45.84 44.80 51.11 52.83 51.99 47.46 45.24 45.50 45.64 44.45 40.68 46.09 42.50 48.14 47.03 47.68 47.86 49.12 45.73 42.32 45.50 48.37 44.18 43.04 48.12 50.68 52.05 52.92 53.43 53.83 54.89 52.12 53.09 53.78 53.37 54.71 56.08 57.22 57.63 56.64 55.77
46.03 45.27 45.04 45.26 45.26 45.55 45.63 45.72 46.07 46.63 47.97 47.25 44.14 43.25 47.50 52.46 48.47 46.65 43.41 41.99 43.65 41.55 44.88 45.28 46.38 44.57 50.50 44.53 44.93 48.31 45.46 46.72 40.87 43.98 43.86 42.72 42.19 46.62 50.75 52.12 53.05 55.07 55.29 55.00 55.40 54.90 56.93 55.14 53.29 54.11 57.08 57.38 57.32 57.22
46.19 45.38 44.91 45.30 45.37 45.23 45.36 45.24 45.64 44.63 43.02 41.75 42.00 44.34 46.82 46.30 44.90 41.69 41.57 43.91 42.47 41.50 47.06 44.60 47.83 49.20 49.09 51.10 46.23 47.72 44.67 45.37 39.83 48.56 45.40 40.97 45.78 50.08 51.41 51.98 53.40 55.08 54.92 54.83 56.15 55.01 56.83 58.65 57.48 57.00 57.78 57.37 56.85 57.31
46.19 45.64 44.97 45.25 45.36 45.25 44.84 44.86 45.33 46.26 46.19 46.77 43.47 42.47 42.95 43.85 34.67 36.97 36.17 39.80 42.16 47.68 48.90 48.83 46.90 48.89 50.65 49.16 45.87 46.04 42.70 41.50 48.79 44.16 42.24 45.80 50.42 52.28 52.35 55.08 54.04 55.11 55.43 54.43 55.31 54.71 54.75 59.31 59.48 58.66 57.55 56.99 57.19 55.96
46.51 45.74 45.07 45.05 45.34 44.92 44.67 45.12 45.71 45.33 43.60 42.07 40.87 31.92 36.61 36.81 38.10 40.97 41.72 42.68 46.78 46.80 45.92 46.67 46.10 48.04 49.13 46.85 47.14 41.45 45.41 46.43 41.71 40.11 41.82 47.51 50.22 52.22 52.68 53.76 56.05 53.35 54.31 53.25 53.16 53.28 53.34 58.10 58.39 58.04 57.80 57.43 56.08 54.15
46.66 45.83 45.23 44.73 44.90 44.93 45.10 45.39 45.99 44.77 43.30 41.08 41.63 33.12 38.02 43.19 45.17 44.97 46.23 46.05 48.11 47.92 47.08 45.94 46.39 48.45 46.57 44.88 46.37 44.51 41.88 39.98 40.44 39.77 45.79 49.72 51.25 50.98 53.08 54.97 51.59 53.77 54.88 53.26 55.20 57.13 57.26 57.50 56.53 56.56 56.43 55.33 54.70 52.20
46.46 44.93 44.04 45.17 45.06 45.64 46.04 45.68 44.86 45.19 44.65 42.05 41.40 39.15 43.81 43.05 42.81 44.89 45.42 45.17 48.91 48.09 47.89 48.96 44.20 41.07 40.62 43.01 41.96 40.80 40.78 38.38 40.39 45.59 49.11 51.03 51.26 52.16 52.78 54.97 51.58 54.74 57.21 57.16 56.36 55.92 55.54 53.82 53.14 52.04 52.73 52.59 53.01 52.82
45.76 43.26 47.25 46.66 44.95 45.79 46.07 43.13 46.03 42.77 41.26 40.37 40.12 44.97 43.25 44.75 43.99 44.46 46.37 46.73 50.45 47.00 43.99 43.89 38.83 37.94 43.05 40.20 41.35 45.06 42.03 44.48 46.55 47.72 51.15 52.29 52.00 52.89 54.47 55.50 55.06 55.53 54.66 54.60 54.29 53.35 52.58 52.48 51.84 51.08 50.27 50.70 51.51 51.94
43.24 45.30 45.39 45.21 44.66 45.97 45.80 43.96 43.51 41.40 37.94 40.42 39.34 43.32 45.44 46.64 46.78 47.22 48.38 49.30 47.66 46.45 45.26 42.12 43.40 39.69 39.60 38.48 41.05 44.20 45.53 47.31 48.34 48.55 49.43 51.23 53.14 54.67 55.51 54.68 54.58 54.43 53.20 52.28 51.57 51.65 51.48 50.57 49.15 48.90 49.66 49.96 49.99 50.41
45.62 45.90 45.56 44.78 44.64 43.15 43.25 43.29 44.35 38.27 40.26 43.07 44.73 45.90 46.09 47.93 48.62 48.52 47.66 48.92 48.80 47.97 45.70 43.29 40.87 40.08 41.74 44.50 43.02 44.61 46.03 46.47 46.32 47.56 49.04 52.08 54.24 54.14 53.67 53.09 52.43 51.99 51.32 50.35 49.69 49.19 49.46 49.54 49.43 49.92 50.14 50.23 49.34 50.20
46.94 45.86 45.03 44.16 43.75 43.72 39.91 41.80 47.53 40.42 39.13 43.57 46.30 45.65 46.90 45.18 46.78 46.48 46.52 46.73 46.02 43.98 41.40 40.58 41.94 43.75 43.44 44.94 47.25 47.11 47.16 48.02 47.83 46.98 48.75 50.92 51.24 50.86 50.57 50.20 49.76 49.98 49.70 49.40 49.17 48.15 49.59 49.79 50.30 50.58 50.44 50.12 49.84 50.07
43.99 44.42 44.38 44.24 45.19 43.97 42.08 41.71 41.71 43.54 43.72 42.63 45.65 43.63 43.18 43.66 43.02 43.53 44.10 46.73 44.43 42.48 41.43 44.38 43.80 45.51 48.02 48.62 48.88 48.97 48.91 50.80 50.69 50.63 49.06 48.21 50.22 50.21 49.76 49.89 50.17 49.84 49.32 49.23 49.12 49.22 49.36 49.79 50.89 51.49 51.13 51.40 51.90 51.51
44.62 44.77 45.37 46.17 42.82 42.81 41.57 45.43 42.62 44.96 42.60 43.09 41.75 41.48 39.66 39.81 41.03 42.53 45.16 42.18 42.14 42.84 44.90 45.31 46.36 46.98 46.92 47.41 48.59 50.05 51.30 51.43 50.90 49.53 48.46 48.76 48.66 48.85 49.03 49.80 49.70 49.60 50.27 50.68 50.26 49.90 50.02 51.41 52.54 52.84 52.57 52.69 52.01 53.05
44.42 46.24 44.87 43.22 39.52 36.09 35.25 45.55 40.49 41.63 38.13 38.78 39.28 37.87 39.22 40.38 42.25 45.12 38.80 39.15 41.36 45.28 46.60 47.58 48.05 48.71 48.28 49.56 50.10 50.35 50.80 50.80 50.07 50.23 50.25 50.10 50.19 50.58 50.71 50.87 51.21 50.14 49.13 49.06 49.81 49.37 49.59 47.90 49.83 52.05 53.12 53.11 52.30 51.62
43.34 42.57 40.15 39.73 39.08 35.15 41.85 39.66 41.75 39.61 38.25 36.55 36.50 36.66 38.50 40.25 42.17 36.79 33.85 36.59 40.59 45.59 46.16 46.31 47.74 48.30 49.03 48.90 48.32 49.08 49.98 50.45 49.76 50.05 50.53 49.46 48.44 48.57 49.78 50.32 51.08 51.46 51.09 50.35 50.17 49.93 50.31 50.14 48.83 50.86 50.67 50.30 49.59 49.26
35.32 34.92 37.51 31.52 39.86 37.25 36.22 36.81 36.98 36.17 34.25 36.85 37.71 38.17 39.28 41.47 35.00 33.65 32.61 36.18 40.66 43.20 44.47 45.97 47.79 48.63 47.72 48.13 48.89 49.64 51.09 50.73 49.41 48.80 49.98 50.27 49.71 49.43 49.31 50.17 50.55 51.01 52.28 51.22 50.34 50.37 50.38 51.04 50.95 50.83 49.92 49.77 49.54 49.90
32.54 37.69 36.03 36.39 37.30 35.65 35.78 33.91 34.07 35.61 37.25 38.97 40.55 42.33 42.18 37.93 34.49 32.44 35.00 38.62 40.95 44.32 45.39 45.96 46.53 47.61 47.70 48.92 48.78 49.12 49.87 51.46 50.79 49.22 50.02 51.00 50.39 49.51 48.74 48.47 48.98 49.63 51.90 52.23 52.27 51.58 51.59 51.77 51.60 50.90 49.86 47.68 43.25 47.39
34.05 36.02 39.88 41.72 39.85 37.60 35.34 36.85 37.63 36.67 38.32 40.18 40.99 39.64 38.12 34.30 33.53 37.33 41.87 44.10 43.98 47.21 48.53 48.35 49.01 49.99 50.17 50.60 51.54 52.54 53.11 53.31 52.55 51.77 52.80 53.29 53.53 53.89 52.12 50.74 50.57 52.34 54.08 54.15 53.20 52.66 51.38 51.25 49.91 49.42 48.65 48.59 48.17 48.18
37.52 34.42 32.46 37.16 36.58 37.57 35.99 38.68 40.73 41.05 42.27 43.87 42.29 38.32 37.35 36.54 37.54 42.65 44.17 47.69 47.84 48.43 48.60 51.47 51.73 51.73 50.67 50.23 51.14 51.60 52.10 53.59 53.98 52.16 50.95 50.64 51.32 51.81 51.85 51.09 49.91 43.38 47.73 49.88 51.07 50.71 51.34 50.45 49.67 49.29 49.04 48.28 48.35 48.84
35.14 37.91 38.10 38.20 41.15 40.58 42.96 42.37 41.51 43.78 45.91 44.44 41.01 39.94 41.43 44.37 45.14 46.05 48.20 49.12 50.94 51.49 49.81 48.90 49.86 51.00 51.00 51.69 51.73 51.39 50.99 50.22 48.99 46.88 45.78 45.55 46.72 48.51 51.23 51.23 51.42 51.28 48.60 46.80 40.57 45.12 48.26 48.17 48.60 48.59 49.84 49.32 50.07 50.26
43.70 43.72 42.20 43.66 41.78 41.20 44.43 46.74 45.13 47.64 48.99 48.88 49.12 48.05 47.56 48.04 49.54 51.46 50.96 50.41 50.00 50.44 50.66 50.23 49.88 49.37 48.59 48.61 48.54 49.49 50.86 51.29 50.73 49.26 47.30 46.87 48.07 50.55 51.33 51.17 51.18 50.57 49.76 49.10 48.72 47.84 41.76 44.80 45.97 46.71 47.27 48.95 49.06 48.35
48.88 47.35 45.10 44.84 43.74 46.02 47.69 49.68 50.31 50.06 49.56 48.73 49.73 47.33 46.77 48.79 51.09 52.53 52.29 53.84 52.35 51.67 50.76 50.24 50.48 51.44 50.68 50.16 49.65 48.94 48.73 51.65 52.05 52.00 51.77 51.43 51.65 52.07 52.47 52.78 52.56 52.66 52.48 52.03 51.44 50.38 50.11 49.21 49.88 50.04 49.87 49.07 48.43 47.07
47.35 45.93 44.74 42.94 44.37 48.15 49.66 48.22 47.57 46.85 46.91 47.34 46.37 48.39 48.83 47.75 46.17 49.79 53.46 52.92 51.79 50.82 48.84 51.23 51.14 50.69 52.17 52.31 51.66 50.50 45.59 50.79 51.39 51.03 51.39 50.55 50.79 51.12 51.56 51.60 51.56 51.57 51.16 50.93 50.96 50.04 50.20 49.60 49.21 49.01 48.53 48.18 47.33 45.91
47.12 47.17 47.04 45.93 44.55 45.70 47.63 47.43 46.40 45.50 46.22 45.76 46.45 47.66 47.96 47.24 45.51 50.98 54.53 54.95 53.81 52.69 52.56 53.04 53.41 53.98 55.79 54.34 53.13 51.62 49.25 51.70 46.75 41.14 40.77 41.06 39.85 42.30 49.96 50.57 50.78 51.57 51.15 50.81 51.01 50.81 50.09 49.64 48.13 47.36 45.91 44.87 44.04 42.75
MSLP
1025.36 1025.19 1025.03 1024.88 1024.62 1024.39 1024.11 1023.76 1023.34 1022.96 1022.59 1022.18 1021.80 1021.46 1021.09 1020.70 1020.32 1019.97 1018.87 1017.69 1017.41 1016.38 1014.20 1013.01 1012.28 1011.69 1010.80 1010.43 1010.06 1009.51 1008.39 1008.08 1006.32 1005.78 1005.48 1004.90 1004.13 1003.45 1003.14 1002.91 1002.97 1003.48 1004.00 1004.27 1004.24 1004.11 1003.63 1001.98 1001.03 1000.89 1001.89 1002.39 1001.95 1003.08
1025.07 1024.77 1024.66 1024.55 1024.35 1024.12 1023.84 1023.55 1023.15 1022.77 1022.39 1022.05 1021.71 1021.39 1021.04 1020.71 1020.46 1020.14 1018.90 1017.92 1017.67 1017.16 1014.32 1013.05 1012.20 1011.36 1010.97 1010.33 1010.51 1010.97 1011.56 1010.96 1009.88 1008.85 1006.91 1005.67 1004.95 1004.47 1004.37 1004.26 1004.13 1004.69 1005.23 1005.11 1005.04 1004.67 1004.72 1004.31 1003.84 1003.21 1002.81 1002.95 1003.75 1004.00
1024.77 1024.64 1024.48 1024.30 1024.06 1023.85 1023.61 1023.27 1022.87 1022.53 1022.20 1021.90 1021.57 1021.21 1020.92 1020.68 1020.44 1020.40 1019.75 1018.70 1017.81 1016.44 1013.43 1012.08 1009.98 1008.87 1009.40 1009.44 1009.40 1010.36 1011.17 1011.31 1010.67 1010.97 1009.93 1007.18 1006.12 1005.88 1005.69 1005.82 1005.61 1005.93 1005.60 1005.70 1005.61 1005.26 1005.04 1005.11 1005.28 1005.21 1005.91 1004.65 1003.48 1004.62
1024.55 1024.43 1024.27 1024.07 1023.82 1023.60 1023.33 1022.96 1022.62 1022.26 1021.94 1021.65 1021.34 1021.02 1020.73 1020.51 1020.31 1020.20 1019.73 1018.62 1018.05 1017.15 1014.50 1010.21 1008.21 1007.96 1008.03 1008.16 1008.44 1008.78 1009.43 1010.78 1011.47 1010.82 1010.24 1008.88 1007.39 1006.43 1006.14 1006.25 1006.33 1006.10 1006.50 1006.62 1006.22 1005.75 1005.33 1006.53 1006.96 1006.48 1006.63 1005.60 1004.74 1005.56
1024.20 1024.15 1024.00 1023.85 1023.64 1023.37 1023.08 1022.80 1022.47 1022.06 1021.64 1021.26 1020.94 1020.71 1020.46 1020.18 1019.97 1019.71 1018.94 1017.99 1017.45 1017.69 1015.60 1012.56 1010.16 1007.90 1007.48 1007.46 1007.72 1008.13 1008.74 1009.44 1010.19 1009.95 1009.75 1008.96 1008.27 1006.79 1006.19 1006.26 1006.76 1006.72 1006.97 1006.76 1007.25 1007.01 1006.94 1008.10 1008.04 1007.40 1007.09 1008.13 1007.17 1006.65
1023.80 1023.81 1023.66 1023.54 1023.34 1023.12 1022.80 1022.51 1022.19 1021.80 1021.39 1020.98 1020.59 1020.27 1019.97 1019.66 1019.44 1018.88 1017.46 1016.86 1016.97 1017.24 1016.01 1013.36 1010.07 1008.02 1007.18 1007.33 1007.80 1008.01 1008.30 1008.47 1008.67 1008.28 1008.23 1007.71 1007.52 1007.19 1006.78 1006.57 1006.66 1006.68 1006.77 1006.82 1007.27 1007.32 1007.62 1008.36 1008.38 1008.03 1007.90 1009.59 1008.86 1008.53
1023.46 1023.45 1023.39 1023.28 1023.08 1022.79 1022.52 1022.20 1021.87 1021.49 1021.08 1020.59 1020.11 1019.70 1019.36 1019.11 1019.01 1018.26 1017.93 1017.33 1017.23 1016.92 1016.36 1013.95 1010.38 1007.95 1006.97 1006.86 1007.26 1007.60 1007.72 1007.85 1007.77 1007.44 1007.35 1007.07 1007.01 1006.72 1006.75 1006.79 1006.43 1006.33 1006.51 1007.04 1007.17 1007.41 1008.06 1007.87 1008.46 1008.37 1007.71 1008.51 1009.88 1010.02
1023.11 1023.10 1023.07 1022.99 1022.83 1022.54 1022.24 1021.89 1021.48 1021.02 1020.55 1020.05 1019.56 1019.08 1018.68 1018.51 1018.63 1017.84 1016.52 1016.74 1017.22 1016.75 1016.20 1014.36 1010.97 1009.41 1008.32 1007.08 1007.28 1007.08 1007.02 1007.06 1007.03 1007.04 1006.54 1006.46 1006.29 1006.36 1006.64 1006.31 1006.07 1006.32 1006.58 1006.85 1007.03 1007.30 1007.60 1007.92 1008.31 1008.38 1008.30 1008.70 1009.67 1010.28
1022.70 1022.75 1022.71 1022.67 1022.54 1022.29 1021.97 1021.56 1021.05 1020.44 1019.80 1019.31 1018.90 1018.51 1018.28 1018.17 1017.25 1016.61 1016.57 1016.79 1016.75 1016.90 1015.83 1013.84 1011.47 1010.06 1008.50 1007.47 1007.11 1006.95 1006.77 1006.51 1006.20 1006.44 1006.45 1006.38 1006.15 1006.22 1006.55 1006.34 1006.16 1006.09 1006.36 1006.45 1006.47 1007.06 1007.54 1007.89 1008.35 1008.73 1008.84 1009.08 1009.90 1010.79
1022.22 1022.32 1022.35 1022.31 1022.24 1022.06 1021.75 1021.32 1020.69 1019.83 1018.70 1018.22 1018.29 1018.09 1017.37 1016.48 1016.45 1016.69 1016.82 1016.61 1016.52 1015.94 1015.49 1013.48 1011.39 1009.92 1009.16 1008.57 1008.16 1008.25 1007.42 1006.39 1005.42 1005.01 1004.89 1005.18 1005.40 1005.44 1005.63 1005.65 1005.69 1005.57 1005.79 1005.90 1006.29 1007.24 1007.80 1008.19 1007.96 1008.25 1008.85 1008.81 1009.57 1010.31
1021.71 1021.86 1021.96 1021.99 1021.95 1021.84 1021.62 1021.26 1020.68 1019.63 1017.48 1017.58 1017.87 1017.75 1016.83 1016.48 1016.34 1016.00 1015.89 1015.68 1014.80 1014.24 1013.38 1012.09 1011.13 1010.51 1009.85 1009.69 1009.38 1008.90 1008.36 1007.27 1006.15 1005.28 1005.09 1004.96 1005.08 1005.08 1004.80 1004.94 1004.76 1004.98 1005.21 1005.48 1005.76 1006.16 1006.76 1006.81 1007.33 1007.67 1008.08 1008.64 1009.07 1009.83
1021.18 1021.42 1021.58 1021.64 1021.64 1021.59 1021.46 1021.24 1020.95 1020.27 1019.79 1020.18 1020.12 1018.96 1017.31 1016.00 1015.77 1015.47 1014.65 1013.80 1013.27 1012.33 1011.82 1011.50 1011.30 1010.97 1010.49 1010.36 1010.04 1009.60 1009.06 1007.99 1006.56 1005.55 1005.23 1004.98 1005.18 1004.71 1004.27 1003.95 1004.05 1004.31 1004.62 1004.94 1005.16 1005.61 1005.92 1006.53 1007.28 1007.65 1008.15 1008.68 1009.09 1009.05
1020.67 1020.98 1021.21 1021.30 1021.35 1021.35 1021.25 1021.10 1020.93 1020.67 1020.02 1018.85 1019.07 1017.87 1016.28 1015.57 1015.14 1014.30 1013.36 1012.56 1012.16 1011.74 1011.70 1011.49 1011.35 1011.03 1010.94 1010.79 1010.66 1010.28 1009.25 1007.96 1006.90 1006.33 1005.82 1006.16 1006.48 1005.94 1005.51 1004.45 1003.71 1003.49 1004.15 1004.77 1005.24 1005.62 1006.04 1005.83 1006.81 1007.31 1007.88 1008.78 1008.82 1009.48
1020.24 1020.61 1020.88 1021.01 1021.07 1021.07 1020.99 1020.83 1020.72 1020.27 1019.68 1018.11 1017.05 1016.82 1015.81 1014.51 1013.69 1012.81 1012.96 1012.80 1012.47 1011.87 1011.60 1011.48 1011.18 1011.22 1011.11 1011.07 1010.60 1010.16 1009.13 1008.40 1007.79 1007.26 1007.36 1008.19 1007.92 1006.97 1006.10 1005.33 1004.70 1003.61 1003.75 1004.83 1005.29 1006.58 1006.40 1006.41 1006.61 1007.33 1007.95 1009.02 1009.61 1010.57
1019.96 1020.38 1020.62 1020.71 1020.74 1020.74 1020.66 1020.55 1020.48 1020.20 1018.86 1016.69 1015.20 1014.71 1013.94 1012.88 1012.46 1012.30 1012.23 1012.14 1011.91 1011.79 1011.54 1011.46 1011.34 1011.47 1011.32 1011.10 1010.63 1010.08 1009.35 1008.83 1009.46 1009.55 1009.16 1008.98 1008.51 1007.77 1006.74 1006.11 1005.50 1004.86 1004.20 1004.38 1004.98 1005.53 1006.66 1007.05 1007.80 1008.47 1009.16 1009.78 1010.28 1011.05
1019.87 1020.41 1020.11 1020.03 1020.19 1020.29 1020.31 1020.22 1019.94 1019.31 1017.66 1015.90 1014.73 1013.52 1012.55 1012.31 1012.00 1012.00 1012.00 1011.97 1011.82 1011.73 1011.65 1012.07 1012.32 1012.29 1011.76 1011.41 1010.71 1009.95 1009.54 1010.09 1010.51 1010.37 1009.83 1009.28 1008.58 1007.94 1006.90 1006.38 1005.48 1005.85 1005.23 1005.48 1006.62 1007.31 1007.86 1008.73 1009.40 1010.12 1010.72 1011.02 1011.56 1012.10
1019.85 1019.33 1019.06 1019.37 1019.97 1020.07 1020.22 1020.18 1018.57 1017.78 1016.21 1015.08 1013.69 1012.47 1012.00 1011.38 1011.86 1012.12 1012.32 1012.48 1012.18 1012.43 1012.91 1013.27 1013.47 1013.15 1012.94 1012.08 1010.86 1010.56 1010.65 1010.65 1010.46 1010.15 1009.93 1009.45 1008.84 1008.21 1007.29 1006.64 1006.79 1007.70 1007.14 1007.43 1008.15 1008.92 1009.42 1010.09 1010.67 1011.31 1012.11 1012.80 1012.95 1013.57
1019.12 1019.16 1019.48 1019.67 1019.88 1019.59 1019.25 1019.26 1017.55 1016.11 1015.37 1014.41 1013.35 1012.16 1011.80 1011.40 1011.93 1012.72 1013.08 1013.26 1013.25 1013.41 1013.78 1014.30 1014.52 1013.94 1013.08 1012.32 1011.68 1011.78 1011.27 1010.93 1010.67 1010.47 1010.15 1009.73 1009.25 1008.68 1007.31 1007.61 1008.06 1008.26 1008.81 1009.27 1009.97 1010.23 1010.84 1011.61 1012.30 1012.83 1013.13 1013.77 1014.10 1014.55
1018.85 1019.22 1019.60 1019.76 1019.81 1019.70 1017.95 1017.20 1016.59 1015.63 1014.34 1013.45 1012.66 1012.15 1011.94 1012.45 1013.27 1013.63 1013.88 1013.99 1014.32 1014.65 1014.80 1014.94 1014.63 1013.86 1013.22 1012.82 1012.77 1012.22 1011.79 1011.47 1010.98 1010.46 1010.23 1009.62 1009.16 1008.99 1009.11 1009.42 1009.70 1010.08 1010.54 1011.07 1011.38 1011.78 1012.46 1012.78 1013.13 1013.82 1014.30 1014.39 1014.86 1015.35
1019.22 1019.55 1019.76 1019.88 1019.99 1019.06 1017.36 1016.69 1016.34 1015.78 1014.55 1013.57 1013.25 1013.11 1013.29 1014.22 1014.36 1014.62 1014.76 1014.91 1015.03 1015.18 1015.19 1014.87 1014.29 1014.11 1013.98 1013.54 1013.14 1012.62 1011.92 1011.30 1010.83 1010.35 1010.13 1009.90 1010.00 1009.93 1010.21 1010.47 1010.90 1011.32 1011.66 1012.13 1012.64 1012.93 1013.26 1013.90 1014.33 1014.76 1015.02 1015.32 1015.74 1016.31
1019.61 1019.57 1019.85 1019.83 1019.00 1018.67 1017.34 1016.31 1015.49 1014.93 1014.53 1014.28 1014.72 1015.18 1015.27 1015.59 1015.61 1015.63 1015.55 1015.39 1015.27 1015.27 1015.14 1014.78 1014.52 1014.09 1013.66 1013.23 1012.83 1012.13 1011.48 1010.78 1010.40 1010.29 1010.58 1010.93 1011.24 1011.33 1011.60 1011.74 1011.86 1012.19 1012.62 1013.16 1013.57 1014.10 1014.28 1014.73 1015.16 1015.42 1015.66 1015.92 1016.24 1016.55
1019.19 1019.63 1019.24 1019.12 1018.44 1017.67 1017.40 1016.30 1015.86 1015.78 1015.72 1015.57 1016.44 1016.90 1016.70 1016.68 1016.56 1016.42 1016.48 1016.19 1016.03 1015.91 1015.39 1014.78 1014.39 1014.04 1013.57 1013.14 1012.56 1011.99 1011.55 1011.29 1011.41 1011.48 1011.74 1011.97 1012.31 1012.55 1012.81 1013.04 1013.15 1013.50 1013.79 1014.14 1014.43 1014.82 1015.31 1015.63 1015.87 1016.08 1016.29 1016.51 1016.63 1016.66
1019.51 1019.13 1018.57 1018.00 1017.92 1018.07 1017.44 1016.52 1016.56 1017.02 1017.13 1017.48 1017.74 1017.50 1017.38 1017.28 1017.34 1017.06 1017.53 1017.90 1017.17 1016.23 1015.54 1014.85 1014.35 1013.97 1013.61 1013.23 1012.79 1012.43 1012.19 1012.10 1012.39 1012.63 1012.89 1013.20 1013.48 1013.73 1013.93 1014.10 1014.19 1014.44 1014.90 1015.41 1015.51 1015.77 1016.12 1016.23 1016.33 1016.32 1016.56 1016.54 1016.61 1016.67
1019.14 1018.66 1018.01 1017.87 1017.93 1018.13 1017.47 1017.48 1017.71 1018.04 1018.32 1018.20 1018.09 1017.98 1017.90 1018.00 1018.48 1018.74 1018.84 1018.48 1017.58 1016.17 1015.42 1015.12 1014.46 1014.04 1013.78 1013.70 1013.56 1013.48 1013.45 1013.39 1013.62 1013.89 1014.14 1014.29 1014.63 1014.96 1015.05 1015.20 1015.34 1015.49 1015.70 1015.97 1016.15 1016.46 1016.66 1016.73 1016.66 1016.69 1016.78 1016.62 1016.58 1016.79
1019.39 1019.37 1018.99 1018.94 1018.58 1018.62 1018.62 1018.66 1018.63 1018.59 1018.40 1018.17 1017.88 1017.96 1018.32 1018.63 1019.07 1019.58 1019.73 1019.25 1018.00 1016.96 1016.42 1015.88 1015.09 1014.58 1014.42 1014.30 1014.41 1014.52 1014.49 1014.42 1014.63 1014.83 1015.28 1015.18 1015.40 1015.68 1015.96 1016.13 1016.28 1016.33 1016.31 1016.37 1016.72 1016.81 1016.93 1016.92 1016.99 1017.06 1017.06 1016.96 1017.02 1017.05
1019.65 1019.23 1019.29 1019.23 1019.38 1019.42 1019.28 1019.09 1018.89 1018.60 1018.08 1017.50 1017.37 1017.98 1018.55 1019.00 1019.76 1020.44 1020.46 1019.75 1018.61 1017.64 1016.83 1016.47 1016.06 1015.44 1015.08 1014.94 1014.96 1015.07 1015.27 1015.16 1015.22 1015.49 1015.81 1015.68 1015.68 1015.87 1016.21 1016.45 1016.69 1016.97 1016.86 1016.80 1016.91 1016.99 1017.06 1017.05 1017.20 1017.17 1017.19 1017.25 1017.24 1017.12
1020.04 1019.81 1019.63 1019.85 1019.67 1019.61 1019.43 1019.08 1018.70 1017.99 1016.97 1016.54 1017.15 1017.86 1018.50 1019.34 1020.16 1020.70 1020.12 1018.65 1018.08 1016.85 1016.28 1015.78 1015.10 1014.40 1014.42 1014.71 1015.00 1015.19 1015.26 1015.26 1015.32 1015.57 1015.78 1015.82 1015.88 1015.83 1015.82 1016.17 1016.49 1016.68 1016.80 1016.75 1016.76 1016.81 1016.82 1016.90 1016.95 1016.97 1017.00 1017.02 1017.12 1017.22
1020.35 1020.20 1019.85 1019.60 1019.49 1019.24 1018.70 1017.99 1017.17 1016.53 1015.97 1015.93 1016.63 1017.19 1017.70 1018.64 1019.82 1020.06 1018.91 1017.54 1016.90 1016.12 1015.38 1014.19 1013.81 1013.87 1014.10 1014.16 1014.29 1014.57 1014.86 1015.06 1015.36 1015.53 1015.73 1015.86 1015.99 1016.14 1016.41 1016.72 1016.89 1016.88 1016.96 1016.98 1017.15 1016.95 1016.80 1016.95 1017.00 1017.00 1017.07 1017.04 1017.12 1017.12
1019.87 1019.61 1019.46 1018.71 1018.15 1017.96 1017.27 1016.73 1016.61 1016.27 1015.91 1015.63 1015.74 1016.17 1017.09 1017.78 1018.65 1018.17 1017.17 1016.70 1015.93 1014.66 1014.43 1014.19 1014.10 1014.01 1014.07 1014.00 1014.20 1014.47 1014.67 1014.94 1015.22 1015.53 1015.74 1016.02 1016.22 1016.51 1016.54 1016.70 1016.83 1016.98 1017.12 1017.25 1017.29 1017.29 1017.26 1017.27 1017.27 1017.36 1017.29 1017.21 1017.13 1017.15
1017.86 1018.00 1017.56 1016.98 1016.79 1016.78 1016.23 1016.00 1015.93 1015.53 1015.34 1015.38 1015.55 1015.94 1016.41 1016.90 1017.04 1016.77 1016.47 1016.06 1015.46 1014.52 1014.36 1014.39 1014.57 1014.77 1014.99 1015.14 1015.29 1015.35 1015.35 1015.43 1015.56 1015.75 1015.96 1016.16 1016.27 1016.36 1016.43 1016.57 1016.70 1016.86 1017.09 1017.24 1017.28 1017.39 1017.39 1017.36 1017.39 1017.42 1017.32 1017.19 1017.06 1017.21
1016.37 1016.08 1016.14 1016.03 1015.94 1015.68 1015.34 1015.27 1015.28 1015.23 1015.22 1015.33 1015.47 1015.58 1015.57 1015.48 1015.64 1015.71 1015.66 1015.10 1014.84 1014.86 1014.92 1015.00 1015.07 1015.30 1015.62 1015.88 1016.07 1016.29 1016.49 1016.71 1016.77 1016.70 1016.53 1016.67 1016.85 1016.96 1016.88 1016.82 1016.89 1016.95 1016.92 1016.84 1016.80 1016.89 1016.99 1017.35 1017.43 1017.57 1017.74 1017.99 1018.25 1018.46
1015.96 1015.81 1015.86 1015.85 1015.78 1015.62 1015.55 1015.47 1015.50 1015.57 1015.59 1015.63 1015.95 1015.79 1015.84 1015.79 1015.64 1015.65 1015.20 1015.22 1015.32 1015.44 1015.55 1015.48 1015.77 1015.93 1016.14 1016.52 1016.84 1017.09 1017.18 1017.30 1017.47 1017.64 1017.68 1017.85 1018.00 1017.99 1017.70 1017.49 1017.47 1017.43 1017.36 1017.29 1017.35 1017.75 1017.98 1018.26 1018.51 1018.72 1018.92 1019.17 1019.38 1019.73
1015.68 1015.79 1015.83 1016.05 1016.02 1015.53 1015.57 1015.64 1015.82 1015.81 1015.77 1015.84 1015.88 1015.99 1016.22 1016.45 1016.45 1016.05 1015.79 1015.82 1015.91 1016.01 1016.26 1016.39 1016.37 1016.40 1016.45 1016.52 1016.80 1017.10 1017.44 1017.83 1018.05 1018.22 1018.32 1018.51 1018.86 1018.97 1018.56 1018.58 1018.59 1018.33 1018.17 1018.03 1017.94 1018.21 1018.56 1018.90 1019.30 1019.67 1020.00 1020.26 1020.52 1020.73
Wind_Speed
8 8 8 10 10 11 12 13 13 13 14 14 15 16 16 16 16 10 7 8 3 5 12 9 12 9 8 2 3 8 9 8 5 2 3 4 4 6 5 6 8 7 6 5 2 5 9 13 4 3 8 4 9 14
9 11 7 9 11 10 12 14 13 13 14 14 15 15 15 15 14 13 5 8 8 5 9 13 17 19 16 11 1 3 1 4 4 5 6 4 4 5 2 2 7 5 2 1 2 2 3 6 7 15 7 14 9 17
10 8 9 9 9 10 11 13 13 14 14 15 15 15 14 14 13 9 6 7 6 6 9 9 12 19 15 16 11 5 2 3 4 3 5 5 4 4 4 2 2 5 6 3 4 3 5 9 9 13 20 6 17 16
8 9 9 10 9 10 12 13 13 14 16 16 16 16 16 14 13 10 6 6 4 5 6 4 11 3 5 17 17 12 8 5 8 3 3 3 2 1 1 3 2 1 4 7 5 5 5 11 11 12 19 12 7 13
9 8 9 9 9 10 12 12 14 15 16 17 17 17 16 16 13 9 7 8 4 3 5 9 17 11 12 7 6 4 4 5 7 3 3 4 7 3 1 1 3 0 2 3 2 6 4 5 5 11 16 24 6 16
9 8 8 9 9 12 12 13 15 16 17 18 18 18 17 15 11 6 1 3 1 6 5 6 7 8 3 6 6 5 5 4 4 3 3 4 9 3 2 0 5 6 6 5 2 5 10 6 5 10 16 11 16 9
8 9 8 9 10 11 12 14 16 17 19 19 18 17 15 11 4 3 2 2 8 4 2 6 6 5 5 4 5 4 7 4 5 4 5 4 4 4 2 2 2 5 7 5 3 1 6 5 4 7 15 15 8 6
10 10 9 9 10 11 13 15 17 18 20 20 19 18 13 6 6 5 4 8 3 3 2 4 4 7 7 2 2 1 4 5 4 4 3 3 2 2 2 4 3 6 4 6 6 6 2 4 7 6 7 12 10 8
10 10 10 9 10 11 13 16 19 20 22 21 20 13 3 3 3 0 8 4 2 2 4 3 4 1 5 4 1 4 2 3 5 7 7 4 4 4 6 7 4 2 2 6 6 5 4 5 2 5 7 10 9 7
11 10 11 9 10 11 13 16 20 23 27 18 3 3 3 2 12 8 1 2 3 4 4 5 5 6 6 6 3 4 4 4 3 4 3 7 8 8 10 10 7 6 6 6 2 6 5 4 9 9 5 7 8 6
12 11 10 9 10 10 12 15 19 25 14 1 3 2 4 8 3 3 2 3 4 4 5 5 3 5 5 5 3 2 3 4 3 4 4 3 7 8 11 13 11 9 8 7 6 4 16 16 13 11 7 6 9 9
13 11 10 10 9 9 11 13 15 9 6 7 7 8 5 3 3 4 3 3 5 2 1 1 2 2 2 2 3 3 3 4 4 4 2 4 3 8 7 12 13 12 10 7 1 5 5 19 12 9 11 11 9 8
14 12 11 10 9 9 11 12 13 14 14 4 5 4 2 1 2 5 3 2 1 2 2 2 2 2 1 1 3 3 4 5 5 3 3 5 11 12 12 11 7 12 13 8 5 7 11 12 13 15 8 9 8 12
14 12 10 10 10 9 11 12 13 9 4 4 4 3 4 4 4 2 3 2 3 4 3 3 2 2 2 2 3 4 4 4 3 3 6 7 13 16 14 11 17 5 15 15 21 21 15 11 12 11 9 8 8 14
13 11 10 11 11 11 12 13 12 5 4 5 4 3 7 7 1 3 3 3 1 3 5 4 4 1 2 3 3 3 4 0 8 5 4 8 10 13 15 10 12 17 3 6 7 14 12 12 11 11 8 7 10 13
12 7 9 14 12 10 8 10 5 3 5 4 4 6 3 6 1 2 3 3 1 4 2 3 4 3 3 4 4 5 3 3 2 4 5 6 9 9 13 8 8 10 9 15 15 14 14 13 13 13 11 10 10 11
14 3 3 13 12 8 5 3 4 7 4 4 5 7 10 1 4 1 2 4 4 2 2 2 2 2 5 4 3 4 3 4 6 7 5 8 11 12 10 3 12 4 12 14 13 12 13 13 13 14 14 11 14 13
5 7 7 5 3 5 3 6 6 4 5 6 6 5 4 4 6 6 4 5 4 2 1 1 1 3 4 3 3 4 6 8 7 8 8 9 11 8 6 10 9 11 12 13 11 11 13 12 13 10 13 13 13 13
3 7 8 4 2 3 4 5 3 4 5 6 5 4 4 6 8 7 6 6 5 2 1 1 3 3 2 3 6 9 9 8 9 9 9 10 5 5 8 11 11 11 11 12 12 9 8 11 10 8 7 8 8 7
13 8 5 1 2 4 3 2 1 4 4 4 6 7 5 5 6 5 3 2 0 1 1 2 2 3 3 6 7 8 9 9 8 7 5 5 7 10 8 9 9 12 11 13 11 11 10 9 7 6 6 7 8 7
5 5 4 4 4 6 4 4 3 3 4 4 7 7 4 3 3 3 3 3 1 2 3 2 4 6 7 6 6 7 8 6 2 4 6 8 7 8 9 8 10 9 10 9 10 7 8 7 5 5 6 5 4 3
3 8 3 6 4 2 3 4 3 3 4 4 5 5 2 3 3 3 4 4 3 2 3 3 3 3 4 5 5 4 4 8 11 10 11 10 9 9 8 8 9 9 8 9 9 8 8 6 4 3 1 2 3 3
4 3 4 1 2 2 6 3 3 3 4 3 3 3 1 2 3 5 4 3 4 4 6 3 5 5 4 4 8 11 11 11 9 9 10 9 9 9 9 8 8 9 9 7 7 7 7 6 5 3 3 1 2 3
1 4 4 2 4 2 3 2 3 3 3 2 2 2 3 4 3 4 3 4 5 8 6 9 6 4 5 8 8 8 8 9 10 9 9 10 9 8 7 7 7 7 7 6 7 6 4 4 6 6 4 4 7 6
1 4 1 3 2 3 2 3 2 2 2 1 0 2 3 3 3 4 5 6 7 5 7 8 9 8 7 7 7 8 9 7 8 9 6 7 7 7 7 7 6 5 3 7 6 4 4 4 5 5 5 5 6 6
2 1 1 2 1 2 2 2 2 2 2 1 2 4 2 3 4 4 5 5 4 4 4 4 3 3 4 3 6 6 5 6 8 7 3 4 6 7 6 6 5 3 3 3 4 4 3 3 3 3 5 4 4 3
1 2 3 3 2 2 1 3 3 3 4 3 3 3 2 4 4 2 4 6 4 4 4 7 6 7 6 5 4 4 4 5 6 6 5 4 4 2 5 5 5 3 4 2 4 3 4 3 4 3 3 3 4 3
1 1 1 1 1 2 2 3 2 5 4 4 3 3 2 3 3 3 6 5 6 9 9 5 4 6 7 7 8 8 8 7 6 7 7 8 7 6 7 6 6 11 7 6 5 6 4 4 3 3 2 3 4 3
2 3 3 3 3 3 3 4 4 4 4 3 6 5 4 4 7 6 6 7 9 8 5 6 5 7 8 8 6 7 6 6 7 9 9 7 6 5 5 4 4 4 4 4 7 4 4 3 2 4 4 3 3 4
3 6 4 4 4 3 2 6 8 5 4 6 7 7 6 6 8 8 7 6 6 6 7 7 8 9 8 9 9 10 9 9 7 7 7 7 7 5 4 4 3 4 5 5 4 3 2 3 3 2 4 5 1 3
1 6 12 11 11 8 7 8 7 6 6 7 7 6 4 3 5 6 6 3 3 5 7 7 9 9 10 9 7 8 8 8 12 12 7 6 7 5 3 3 4 2 1 2 2 2 1 3 7 7 12 14 14 11
5 9 8 10 7 6 7 6 7 7 6 9 8 6 8 8 8 6 4 6 6 6 7 9 9 7 8 8 7 6 8 5 5 6 9 7 7 7 7 8 8 7 7 8 9 11 13 12 11 10 10 13 13 14
7 7 7 8 3 2 6 4 4 5 7 7 6 7 8 6 4 1 4 6 7 7 7 6 5 4 5 6 6 6 7 7 7 7 7 7 7 9 8 7 7 8 10 8 8 9 10 12 11 11 11 11 11 11
Wind_Direction
307 305 313 330 333 338 335 330 335 345 342 341 340 344 348 349 353 352 290 283 305 292 295 267 302 315 331 37 352 332 328 6 312 224 205 253 257 251 248 236 207 191 197 211 215 204 252 353 321 275 147 97 111 140
338 324 303 321 321 328 336 332 333 333 335 338 338 337 340 344 346 349 289 355 349 272 269 312 280 260 250 265 303 67 258 295 331 317 357 309 295 9 25 339 360 55 23 336 119 133 12 320 357 8 116 121 109 112
313 317 317 319 328 329 328 326 330 333 331 331 330 331 332 331 334 338 301 290 309 257 264 235 239 250 215 226 233 134 165 276 346 186 296 304 66 356 5 45 61 329 4 20 346 19 8 2 10 4 18 238 130 129
293 310 310 312 319 323 325 333 332 331 329 327 326 325 323 322 318 315 290 298 298 281 279 303 349 179 225 204 220 184 160 152 253 180 255 310 294 213 349 163 80 91 53 326 269 35 346 47 31 25 31 302 89 106
278 297 302 307 311 317 324 327 327 324 324 324 323 320 316 311 308 295 261 253 210 268 314 297 307 275 250 187 201 219 214 182 206 250 260 281 295 337 212 41 73 60 1 13 24 334 101 71 75 45 61 357 58 102
263 275 284 298 309 312 321 322 323 324 323 321 319 319 315 309 309 283 231 175 256 214 310 296 338 286 271 170 195 213 216 195 236 255 214 197 186 225 283 193 97 99 81 50 61 48 79 92 147 112 90 74 348 45
253 272 278 287 302 313 318 320 321 320 319 318 315 313 311 303 265 273 320 340 333 327 257 293 279 321 275 168 190 191 212 225 217 235 236 213 209 171 181 225 184 152 139 144 128 10 147 211 147 136 126 138 148 94
263 268 272 283 297 310 317 319 319 317 316 314 313 311 306 278 256 269 237 213 263 253 257 278 283 339 335 295 338 143 194 193 212 241 277 264 291 125 241 212 196 143 108 169 168 202 56 90 154 174 153 123 118 118
254 262 267 280 293 308 316 320 320 317 313 310 307 301 271 226 237 246 126 148 239 297 299 268 303 283 265 324 0 347 289 213 195 189 216 216 208 196 189 247 269 280 241 243 175 158 168 144 185 58 146 132 129 149
241 251 261 270 287 304 316 322 324 320 310 311 270 201 251 210 116 134 145 190 203 203 224 258 264 293 349 347 17 355 312 285 304 250 209 213 237 229 184 204 242 200 230 238 189 144 145 164 148 140 172 122 128 136
232 242 251 264 278 298 313 324 331 327 309 340 326 37 330 158 228 217 232 231 206 223 207 241 287 338 333 345 336 303 316 293 281 255 252 240 237 223 224 206 210 188 198 216 224 238 189 167 170 176 168 157 140 153
225 234 244 255 271 291 308 321 332 332 354 313 294 278 255 230 238 262 240 214 224 255 163 304 264 262 326 349 305 312 280 277 259 272 264 239 312 297 249 212 200 192 182 198 68 337 270 172 180 181 181 151 160 128
217 226 239 250 263 282 302 312 318 311 303 260 203 241 288 229 352 241 248 235 48 330 35 6 315 277 5 284 260 269 263 241 344 272 263 36 5 339 334 351 277 185 177 130 51 354 278 161 169 149 140 138 129 113
210 220 234 249 259 278 294 302 313 321 277 247 205 291 222 220 249 328 81 264 310 326 31 350 317 223 230 251 235 251 253 298 260 245 39 2 340 328 338 336 2 210 175 152 142 218 255 142 137 134 123 123 113 130
202 215 233 249 254 267 280 291 304 297 270 266 228 221 212 247 321 5 33 323 96 290 346 328 322 44 261 268 230 290 255 281 16 354 322 327 338 334 332 339 2 341 224 194 166 158 128 97 95 91 90 98 110 115
188 213 234 238 242 256 274 289 260 235 255 258 258 274 274 214 67 33 12 2 299 329 345 21 11 320 286 327 262 236 291 84 200 258 304 324 316 314 320 334 42 332 69 70 74 93 94 94 98 92 80 81 92 105
170 251 99 195 218 253 261 268 225 219 271 251 250 252 251 19 82 1 340 9 8 12 47 15 322 328 310 262 261 27 27 331 337 327 333 323 332 323 306 350 144 145 85 79 81 90 95 97 95 95 95 87 88 90
203 150 136 152 189 226 226 205 260 212 244 247 262 288 336 12 62 62 53 25 7 28 40 352 329 247 243 253 332 358 315 328 325 325 316 327 324 351 39 73 83 78 78 87 97 98 98 102 106 103 100 103 98 95
187 145 158 165 342 298 232 209 253 283 252 273 286 301 310 79 46 31 11 23 36 45 97 188 252 243 291 13 334 314 312 310 305 305 304 308 319 79 83 83 83 90 99 108 105 92 95 96 96 96 98 99 97 101
105 123 152 156 285 273 246 250 133 270 275 315 2 3 50 24 10 11 7 26 158 164 189 226 262 4 306 300 297 292 290 288 283 289 301 60 57 68 69 94 97 101 93 91 91 93 94 94 90 92 99 113 120 122
206 142 174 231 220 235 310 302 237 308 341 358 30 16 20 2 359 335 333 335 312 13 322 348 299 296 301 291 286 276 278 285 355 55 90 82 68 77 78 72 82 86 92 95 99 97 85 89 89 93 111 107 104 139
99 164 254 196 264 206 259 259 290 9 315 15 32 354 354 339 331 358 323 351 22 322 282 289 302 315 313 317 325 334 3 71 82 82 77 81 82 80 81 85 89 86 79 72 73 72 69 69 80 89 108 255 233 156
155 222 234 203 260 60 261 318 20 21 340 19 338 325 353 339 14 344 54 342 294 296 306 297 311 302 310 352 42 46 54 74 77 78 76 73 69 70 72 68 75 83 79 66 75 78 72 58 54 91 97 71 243 155
77 298 338 281 159 276 9 18 26 31 19 321 304 21 12 23 29 40 2 296 293 324 360 4 354 47 50 47 47 48 54 68 71 68 69 79 74 61 62 68 71 71 90 97 85 79 77 66 67 64 62 59 74 79
344 322 131 325 320 37 334 358 356 355 305 284 246 62 51 33 38 37 355 313 324 332 347 355 26 43 58 59 60 58 45 68 81 84 75 88 90 83 70 65 59 45 43 102 97 94 77 69 70 64 33 42 57 58
50 40 61 83 296 33 342 310 324 305 278 225 85 78 56 35 41 24 324 291 291 297 322 338 341 65 37 34 87 83 93 98 88 80 59 106 107 110 112 105 96 53 19 74 109 108 129 120 128 134 102 105 74 351
56 17 34 37 4 92 277 245 247 269 270 77 78 81 77 60 51 9 280 264 265 257 280 291 276 108 115 129 124 125 126 117 113 123 134 126 127 98 84 87 94 124 170 223 141 132 98 111 95 102 96 110 124 91
42 136 211 286 209 201 266 252 289 7 22 86 86 98 94 103 107 221 241 263 261 276 281 291 63 120 127 120 118 118 118 120 124 116 92 73 64 69 80 84 93 92 66 58 65 36 55 58 72 77 115 34 69 55
224 195 228 269 197 197 346 26 52 32 66 105 101 96 92 80 163 210 257 249 266 248 143 97 79 62 61 63 81 102 104 109 114 113 109 112 122 129 142 141 117 96 95 87 60 77 57 51 8 8 356 344 10 15
180 181 223 126 85 58 82 117 143 167 111 81 90 105 116 154 195 213 241 263 291 21 66 87 88 79 70 64 59 55 48 46 52 68 75 76 75 80 80 85 102 129 145 146 162 180 280 254 213 245 254 251 180 58
246 138 112 111 113 119 117 128 133 134 113 101 91 85 97 173 180 201 215 220 87 98 92 78 65 64 64 59 82 90 79 51 35 28 46 70 58 39 56 131 124 112 63 335 242 224 151 49 43 49 50 58 64 75
125 117 116 112 98 85 109 114 107 117 112 94 95 103 92 63 50 21 44 90 85 69 56 67 67 94 107 106 94 81 68 66 73 59 50 45 34 11 13 41 36 33 26 21 51 68 61 61 58 57 61 57 56 51
95 84 84 83 58 76 134 117 121 120 106 119 116 89 86 76 57 56 86 64 52 75 86 65 62 71 51 109 127 132 125 96 92 91 96 92 70 28 32 25 12 9 14 4 31 54 62 67 70 68 62 54 49 45